Vertical_Velocity
-1 -2 -2 -1 -2 -3 -3 -3 -2 -1 -2 -3 -3 -3 -3 -2 -3 -3 -2 -2 -2 -1 -1 -1 -1 0 1 0 -1 -1 -1 -0 1 1 1 1 0 1 2 2 2 2 3 3 4 4 3 1 1 0 0 0 0 1 2 3 3 3 2 1 0 -1 -1 -2 -2 -2 -2 -2 -2
-2 -2 -2 -1 -1 -1 -1 -1 -1 -2 -2 -3 -2 -2 -2 -3 -3 -3 -3 -2 -3 -2 -2 -2 -2 -2 -3 -4 -2 -2 -2 -1 -0 1 1 1 1 2 3 3 2 2 2 3 4 3 2 1 0 -0 0 2 2 3 3 3 3 3 2 1 0 -0 -1 -1 -1 -1 -1 -1 -2
-2 -1 -0 -0 -1 -1 -3 -4 -4 -4 -4 -3 -2 -1 -0 -2 -2 -2 -2 -2 -1 -0 -0 -2 -3 -3 -4 -3 -2 -1 -1 -1 1 2 2 2 2 3 3 3 2 2 3 3 4 3 2 1 0 1 2 3 4 4 4 4 3 2 1 1 1 0 -0 -1 -1 -1 -2 -2 -3
-1 -1 -2 -2 -3 -5 -6 -7 -6 -4 -3 -3 -1 0 -0 -1 -1 -1 -0 1 2 1 -1 -2 -2 -2 -1 -1 -0 -0 0 1 2 2 2 2 3 3 3 3 3 3 3 4 4 4 3 2 2 2 3 4 5 5 5 5 3 2 1 1 1 0 -0 -0 -0 -1 -2 -2 -2
-1 -2 -4 -4 -4 -4 -4 -3 -2 -1 -1 -0 0 -0 -1 -1 -1 -0 0 1 -1 -2 -1 1 1 1 0 1 1 1 1 2 2 2 2 3 3 3 3 3 3 3 3 4 4 4 3 3 3 3 5 5 5 6 6 5 3 2 2 2 1 0 0 0 0 -0 -1 -1 -1
-3 -3 -2 -2 -1 -0 0 0 0 1 1 1 -1 -2 -3 -3 -2 -3 -3 -4 -4 -1 2 4 2 1 1 1 1 1 2 2 2 3 3 4 4 4 4 3 3 3 4 4 4 3 3 2 2 3 4 4 4 4 5 4 2 2 2 2 1 1 1 0 0 1 1 1 1
-3 -2 -1 -1 -0 0 -0 -1 0 1 1 0 -2 -4 -5 -4 -4 -5 -5 -4 -1 1 2 1 0 -0 -0 -0 -0 -0 -0 0 1 2 3 4 4 5 5 4 5 4 4 3 3 3 2 2 2 2 2 0 1 2 2 1 0 0 1 1 1 1 1 0 1 1 1 2 2
1 -0 -1 -1 -1 -1 -1 -1 0 0 -0 -3 -5 -5 -4 -3 -3 -3 -1 1 -0 -1 -1 -1 -2 -2 -1 -1 -1 -1 -2 -1 -1 -0 0 1 2 3 4 5 5 4 3 3 4 4 3 4 3 2 1 1 1 1 0 -1 -1 -2 -1 -1 0 1 1 1 2 2 1 -0 -2
2 1 -0 0 -1 -1 -1 -0 -1 -2 -3 -6 -6 -4 -1 -0 -1 -0 -0 -1 -3 -2 -1 -1 -1 -1 0 0 0 0 -0 -1 -2 -2 -2 -1 -0 0 0 -0 -2 -1 1 3 4 5 5 6 6 6 6 5 4 3 2 0 -1 -2 -3 -4 -3 -0 1 2 3 1 -1 -5 -6
-2 -2 -1 -0 -1 -1 0 1 -1 -2 -3 -4 -3 -1 1 1 0 -1 -2 -2 -1 1 0 -1 -0 1 1 0 2 2 3 2 1 0 -0 -0 -0 -1 -2 -5 -6 -3 1 5 6 6 6 7 9 10 10 8 6 4 3 3 2 -1 -5 -10 -6 -3 0 2 2 -1 -4 -8 -8
-4 -3 -3 -3 -3 -1 1 1 -0 -1 -1 -1 -1 0 1 1 -0 -1 -1 1 2 -0 -2 -1 1 1 1 1 2 3 3 3 3 2 2 1 1 1 0 -0 1 3 5 5 4 2 0 1 5 7 8 6 4 2 2 2 2 -1 -6 -11 -7 -3 -0 1 -1 -4 -6 -7 -7
-3 -2 -3 -3 -2 -0 1 0 -1 -2 -2 -1 -1 -0 0 -0 -0 1 2 3 -1 -2 -2 2 2 2 1 2 2 3 3 3 2 2 3 3 3 4 5 6 7 6 4 1 -1 -2 -3 -4 -1 1 3 3 1 -0 -1 -0 0 -2 -5 -7 -4 -2 -1 -1 -4 -5 -5 -5 -6
-2 -2 -1 -1 -0 1 1 -0 -1 -2 -2 -2 -2 -2 -1 -1 1 3 3 0 -2 -1 1 3 3 3 2 2 3 3 3 1 1 1 3 4 5 6 8 8 5 2 -1 -3 -2 0 1 0 0 1 3 2 0 -1 -2 -1 -1 -2 -4 -5 -3 -2 -2 -4 -4 -3 -2 -3 -4
-0 -1 -2 -1 1 1 0 -0 -1 -2 -2 -3 -3 -2 -0 0 2 2 2 -0 -0 1 3 3 3 2 2 2 2 2 1 1 1 2 3 4 5 6 7 5 0 -2 -3 -1 1 3 4 3 3 3 2 2 0 -0 -0 1 1 0 -2 -4 -3 -2 -2 -3 -2 -1 -1 -3 -4
0 -1 -1 1 2 1 0 -1 -2 -2 -3 -3 -3 -1 1 1 1 2 2 1 1 2 3 3 2 2 2 2 1 1 1 2 2 2 3 3 4 5 5 2 -1 -2 -0 1 2 3 3 2 2 1 1 0 0 1 2 4 5 2 -1 -3 -2 -1 -1 -1 0 -0 -2 -4 -4
-1 -1 0 3 2 0 -1 -2 -3 -3 -3 -4 -2 1 2 1 1 1 2 2 2 3 3 2 1 1 1 1 -0 1 2 2 2 2 2 2 3 4 4 2 1 0 0 0 -0 0 1 0 -0 -1 -1 -0 1 3 5 7 6 2 -1 -2 -1 0 1 2 2 0 -2 -3 -4
-1 -0 1 1 0 -1 -3 -4 -3 -3 -3 -4 -1 1 1 0 0 1 1 1 2 2 1 -1 -1 0 0 -1 0 1 2 2 2 2 2 2 3 3 3 3 2 0 -1 -3 -2 -2 -1 -1 -0 0 1 1 2 4 6 6 3 -0 -2 -2 -1 -0 1 3 2 0 -2 -3 -4
-1 -0 0 0 -2 -3 -4 -4 -3 -3 -3 -2 -0 1 1 0 0 -0 -0 1 1 0 -0 -1 -0 0 0 -0 1 1 1 1 1 1 1 2 2 2 3 2 2 0 -2 -5 -4 -4 -3 -2 0 2 2 2 3 4 4 1 -2 -2 -2 -3 -4 -2 1 3 2 -0 -2 -4 -4
-1 -0 -0 -1 -3 -4 -3 -3 -2 -2 -1 -0 0 1 1 0 -0 -0 0 1 0 1 1 1 1 1 1 1 1 1 1 1 1 1 2 2 2 2 1 1 1 -2 -5 -7 -6 -4 -3 -2 -1 1 1 2 2 2 1 -2 -1 0 0 -3 -5 -3 1 3 1 -1 -3 -4 -3
-2 -2 -3 -4 -4 -3 -2 -2 -1 -0 1 2 2 1 1 -0 0 0 0 -0 1 2 3 2 1 1 2 3 3 2 1 1 1 2 2 2 2 1 0 -0 -2 -5 -8 -9 -5 -2 0 1 1 1 1 1 1 0 -0 1 3 3 0 -4 -5 -2 1 3 0 -1 -3 -3 -1
-4 -5 -6 -6 -3 -2 -2 -1 1 3 4 3 2 1 1 1 0 -0 -0 1 3 4 3 1 2 2 2 2 3 1 0 0 1 1 1 2 1 0 -1 -1 -4 -7 -8 -6 -2 2 4 4 3 3 3 3 1 1 1 3 4 1 -2 -5 -4 -1 1 1 -1 -2 -3 -2 1
-8 -7 -5 -3 -2 -1 1 4 6 7 6 4 2 2 3 3 1 0 1 4 5 3 1 1 3 3 2 1 1 1 1 0 0 0 1 2 1 0 -0 -1 -3 -4 -4 -2 1 3 5 5 4 3 3 2 2 2 3 4 2 -1 -4 -5 -3 -0 1 -1 -3 -4 -3 -1 2
-6 -3 -1 1 3 5 9 12 13 12 9 6 5 6 6 5 3 3 4 5 4 3 2 4 5 5 3 2 2 2 2 1 0 1 1 1 1 1 1 1 -1 -2 -1 0 1 2 2 2 1 0 0 1 2 3 3 2 0 -2 -4 -4 -2 -1 -1 -3 -4 -4 -3 -0 3
-0 3 4 6 10 14 18 20 20 17 13 9 9 9 9 7 6 5 4 4 4 4 5 5 5 4 4 4 3 3 2 1 1 1 1 1 0 0 1 2 0 -1 -2 0 0 -0 -1 -2 -2 -1 1 3 3 3 1 -0 -2 -3 -4 -3 -1 -1 -2 -4 -4 -4 -2 1 3
6 8 10 12 15 18 20 20 12 2 -5 -1 9 13 13 10 8 5 3 3 4 4 4 3 1 1 1 2 1 1 2 2 3 3 3 3 2 2 2 2 -0 -1 -1 1 2 1 -0 -2 -1 1 3 5 4 2 0 -1 -2 -3 -3 -2 -1 -1 -3 -4 -4 -3 -1 3 4
10 12 13 12 13 13 12 8 -7 -20 -22 -4 11 14 11 8 6 3 2 3 4 5 4 2 -2 -3 -2 0 1 1 2 2 5 6 7 7 6 5 4 1 -1 -1 -1 1 3 3 2 1 2 3 5 5 3 1 -0 -1 -1 -1 -0 -0 -1 -2 -4 -5 -5 -2 1 5 4
13 13 11 7 6 5 3 -0 -12 -20 -17 2 10 10 7 5 3 2 2 4 6 7 6 3 -1 -1 -0 2 2 2 2 2 5 6 7 7 6 5 3 0 -1 -1 -2 -1 1 1 1 3 4 5 5 4 2 1 0 -0 -0 0 0 -1 -2 -3 -4 -5 -3 -0 3 5 4
17 13 9 5 2 -1 -1 2 -4 -11 -12 -2 4 6 5 5 3 2 3 6 8 8 7 5 4 4 4 4 3 2 3 4 4 4 3 1 0 -1 -2 -4 -4 -3 -3 -3 -2 -2 -0 3 4 5 5 3 2 1 1 0 -0 -1 -1 -2 -4 -4 -4 -3 -0 3 5 5 5
22 17 10 5 1 2 5 10 4 -4 -11 -9 -2 4 6 6 4 3 3 4 4 3 3 4 6 7 7 5 4 4 5 6 4 2 -0 -2 -2 -3 -5 -5 -4 -2 -1 0 -0 -1 -0 2 3 3 2 1 2 1 0 -1 -1 -2 -3 -4 -5 -4 -2 1 5 7 7 6 6
16 13 9 5 5 8 12 12 5 -3 -9 -9 -2 2 4 4 3 2 2 2 -1 -2 -2 1 3 3 3 3 5 6 7 6 5 2 -1 -1 1 1 2 3 2 1 1 2 1 1 1 2 3 3 2 3 2 -0 -2 -2 -2 -3 -4 -5 -4 -1 4 8 9 9 7 6 4
2 4 6 5 8 10 11 8 2 -2 -5 -3 -0 1 2 1 1 1 1 2 2 2 1 0 -1 -2 0 4 7 7 6 5 3 0 -1 1 0 0 1 2 1 -0 -0 1 1 2 3 4 4 4 4 3 0 -2 -3 -3 -3 -4 -4 -2 2 7 10 11 9 7 4 3 2
-2 -1 1 1 3 5 6 5 2 0 0 1 2 2 2 2 0 0 1 2 4 5 5 0 -3 -1 3 8 8 7 4 -1 -3 -3 -1 -1 -3 -4 -4 -3 -3 -2 -1 1 3 4 4 5 6 6 4 1 -2 -3 -4 -4 -4 -2 0 5 8 9 8 6 4 2 1 1 1
4 1 -3 -7 -4 -0 2 2 1 -1 -2 -2 -0 2 3 3 2 2 2 2 4 3 1 -2 -2 1 5 7 6 2 -3 -7 -6 -4 -3 -4 -5 -5 -3 -2 -1 -0 1 3 4 5 5 6 7 5 3 -1 -2 -3 -4 -4 -1 2 5 6 4 3 1 0 -0 -0 0 2 3
10 6 1 -5 -2 0 1 1 -1 -4 -7 -7 -3 0 2 2 2 1 1 2 3 1 -1 -1 1 3 4 3 -1 -5 -7 -5 -3 -3 -3 -4 -3 -1 -0 0 1 3 4 5 5 6 6 7 6 4 1 -1 -2 -3 -3 0 5 6 5 2 0 -1 -1 -1 -0 1 2 3 4
14 11 7 4 3 2 2 5 4 0 -2 -3 -2 -1 -0 -0 -1 0 2 4 4 3 1 2 3 2 1 -2 -5 -5 -3 -1 -2 -2 -3 -2 -0 1 1 1 3 4 6 7 6 7 7 7 4 2 -0 -2 -3 -1 2 7 7 5 2 -1 -1 -1 -0 0 2 3 4 5 4
16 13 9 6 2 2 5 9 6 2 -2 -4 -4 -3 -1 1 2 4 5 6 5 3 2 1 -1 -3 -6 -7 -5 -2 -1 -2 -2 -2 -1 1 2 2 2 3 4 6 6 7 7 7 6 4 2 -0 -2 -3 -0 4 8 9 6 3 0 -1 -1 -0 1 2 3 4 5 5 4
17 16 12 7 3 4 5 1 -7 -11 -11 -5 1 5 7 7 8 8 8 5 2 1 -1 -2 -5 -8 -9 -7 -4 -3 -2 -3 -1 1 2 3 3 3 4 5 5 6 7 8 7 6 4 1 -1 -2 -2 0 5 8 9 7 3 1 -0 -1 -0 1 3 4 5 4 4 3 3
15 15 15 14 9 5 -1 -11 -14 -11 -2 10 15 15 13 9 7 6 5 1 -2 -4 -5 -5 -5 -5 -5 -2 -1 -0 -0 1 2 3 3 4 4 5 5 5 6 7 8 8 6 3 1 -1 -1 -0 2 5 8 9 7 4 2 0 0 1 2 3 4 5 4 3 2 1 1
5 8 11 16 11 4 -3 -5 0 7 15 19 16 13 10 7 3 1 -1 -3 -5 -6 -5 -4 -2 -1 1 2 2 2 2 2 2 2 3 4 5 6 6 7 7 8 8 6 4 2 2 2 3 6 8 10 10 8 5 3 1 1 1 2 3 2 2 1 -0 -1 -1 -1 -0
-4 -2 0 4 3 3 3 5 7 9 9 8 4 2 1 1 -0 -2 -3 -2 -2 -1 -0 -0 0 1 2 2 1 0 0 1 2 3 4 5 6 7 8 8 8 8 7 6 4 4 4 5 8 9 10 9 6 4 2 0 -0 -0 -0 -1 -2 -2 -2 -2 -2 -1 -0 1 1
-5 -5 -3 -1 1 2 2 0 -1 -2 -3 -5 -5 -5 -5 -5 -2 -1 0 1 3 3 3 2 1 1 0 -1 -2 -1 -0 1 3 4 5 6 7 7 7 6 7 7 5 3 2 2 3 4 5 5 3 2 0 -1 -2 -3 -2 -3 -3 -3 -3 -2 -1 1 2 3 3 3 4
Height
1509 1510 1510 1511 1512 1513 1513 1514 1515 1516 1517 1517 1518 1519 1520 1520 1521 1522 1523 1523 1524 1525 1525 1526 1526 1527 1528 1529 1530 1531 1532 1533 1534 1535 1535 1535 1536 1537 1537 1538 1539 1539 1540 1540 1540 1541 1541 1541 1542 1542 1542 1543 1543 1544 1544 1544 1544 1544 1544 1544 1544 1544 1545 1545 1545 1545 1545 1545 1545
1508 1509 1510 1510 1511 1512 1512 1513 1514 1515 1516 1516 1517 1518 1519 1520 1520 1521 1521 1522 1523 1524 1525 1525 1526 1527 1528 1529 1530 1531 1531 1532 1533 1533 1534 1534 1535 1535 1536 1536 1537 1538 1538 1539 1539 1540 1540 1540 1540 1541 1541 1541 1541 1542 1542 1542 1543 1543 1543 1543 1543 1543 1544 1544 1544 1544 1544 1544 1544
1507 1507 1508 1509 1510 1510 1511 1512 1512 1513 1514 1515 1516 1517 1518 1519 1519 1520 1520 1521 1522 1523 1524 1525 1526 1526 1527 1528 1529 1530 1530 1531 1531 1532 1532 1532 1533 1534 1534 1535 1535 1536 1536 1537 1538 1538 1539 1539 1539 1540 1540 1540 1540 1540 1540 1541 1541 1542 1542 1542 1542 1542 1542 1543 1543 1543 1543 1543 1543
1505 1506 1507 1507 1508 1509 1509 1510 1510 1512 1513 1514 1515 1516 1517 1517 1518 1519 1519 1520 1521 1522 1523 1523 1524 1525 1526 1527 1527 1528 1529 1529 1530 1530 1530 1531 1531 1532 1533 1533 1534 1534 1535 1535 1536 1537 1537 1538 1538 1539 1539 1539 1539 1539 1540 1540 1540 1541 1541 1541 1541 1541 1541 1541 1541 1541 1541 1541 1541
1504 1505 1505 1505 1506 1507 1508 1508 1509 1510 1511 1513 1514 1515 1515 1516 1517 1517 1518 1519 1519 1520 1521 1522 1523 1523 1524 1525 1525 1526 1527 1527 1528 1528 1529 1529 1530 1530 1531 1532 1532 1533 1533 1534 1535 1535 1536 1537 1537 1537 1538 1538 1538 1538 1539 1539 1540 1540 1540 1540 1540 1540 1540 1540 1540 1540 1540 1540 1540
1502 1503 1504 1504 1505 1506 1507 1507 1508 1509 1510 1511 1512 1513 1514 1514 1515 1515 1516 1517 1517 1518 1519 1520 1521 1522 1522 1523 1524 1524 1525 1525 1526 1526 1527 1527 1528 1529 1530 1530 1530 1531 1532 1532 1533 1534 1535 1535 1536 1536 1536 1536 1537 1537 1538 1538 1539 1539 1539 1539 1540 1540 1540 1540 1540 1540 1540 1540 1540
1501 1502 1502 1503 1504 1505 1505 1506 1507 1508 1510 1510 1511 1511 1512 1513 1513 1514 1514 1515 1516 1517 1518 1519 1519 1520 1520 1521 1521 1522 1523 1524 1524 1525 1525 1526 1527 1527 1528 1529 1529 1530 1530 1531 1532 1532 1533 1533 1534 1534 1534 1535 1535 1535 1536 1537 1537 1538 1538 1539 1539 1539 1539 1539 1539 1539 1539 1539 1539
1500 1501 1501 1502 1503 1504 1504 1505 1506 1507 1508 1509 1509 1510 1510 1511 1512 1512 1513 1514 1515 1515 1516 1517 1517 1518 1518 1519 1520 1520 1521 1522 1522 1523 1524 1525 1525 1526 1527 1527 1528 1529 1529 1529 1530 1530 1531 1531 1531 1531 1532 1532 1533 1533 1534 1535 1535 1536 1537 1538 1539 1539 1539 1538 1538 1538 1538 1538 1537
1499 1500 1500 1501 1502 1502 1503 1504 1505 1505 1506 1506 1507 1508 1509 1510 1510 1511 1511 1512 1513 1513 1514 1515 1515 1516 1516 1517 1518 1518 1519 1520 1520 1521 1522 1523 1523 1524 1525 1526 1526 1527 1527 1528 1528 1529 1530 1530 1530 1530 1530 1530 1530 1531 1532 1533 1534 1535 1536 1537 1538 1538 1538 1537 1537 1537 1537 1536 1535
1498 1499 1500 1500 1500 1501 1502 1503 1503 1504 1504 1505 1505 1506 1507 1508 1509 1509 1510 1510 1511 1512 1512 1513 1513 1514 1515 1515 1516 1516 1517 1517 1518 1519 1520 1520 1521 1521 1522 1523 1523 1524 1525 1525 1526 1528 1529 1529 1529 1529 1529 1529 1529 1530 1531 1531 1532 1533 1534 1535 1535 1536 1536 1536 1536 1535 1535 1534 1533
1496 1497 1498 1499 1499 1500 1501 1502 1502 1502 1503 1504 1504 1505 1506 1506 1507 1508 1508 1509 1509 1510 1510 1511 1511 1512 1513 1513 1514 1515 1515 1516 1516 1517 1517 1518 1518 1519 1520 1520 1520 1521 1522 1524 1525 1527 1528 1529 1529 1528 1528 1528 1529 1530 1530 1530 1530 1531 1531 1532 1533 1534 1534 1534 1534 1533 1532 1532 1532
1495 1496 1496 1497 1498 1499 1499 1500 1500 1501 1501 1502 1503 1503 1504 1505 1505 1506 1507 1507 1507 1508 1508 1509 1510 1510 1511 1511 1512 1513 1514 1515 1515 1515 1516 1516 1517 1517 1518 1519 1519 1520 1522 1523 1525 1525 1525 1526 1527 1527 1527 1527 1528 1528 1529 1529 1529 1529 1529 1530 1531 1532 1532 1532 1532 1531 1531 1530 1530
1494 1495 1495 1496 1496 1497 1498 1498 1499 1499 1500 1500 1501 1501 1502 1503 1504 1505 1505 1505 1505 1506 1506 1507 1508 1509 1509 1510 1511 1512 1513 1513 1514 1514 1515 1515 1515 1516 1517 1517 1519 1520 1521 1522 1522 1523 1523 1523 1524 1525 1525 1526 1526 1527 1527 1528 1527 1527 1528 1528 1529 1530 1530 1530 1530 1530 1530 1529 1529
1492 1493 1494 1494 1495 1495 1496 1496 1497 1497 1498 1498 1499 1500 1500 1501 1502 1503 1503 1503 1504 1504 1505 1505 1506 1507 1507 1508 1509 1510 1511 1512 1513 1513 1513 1514 1515 1515 1515 1516 1517 1518 1519 1520 1520 1520 1521 1521 1522 1523 1524 1525 1525 1525 1526 1526 1526 1526 1526 1527 1527 1528 1528 1529 1529 1528 1528 1527 1527
1490 1491 1492 1493 1493 1494 1494 1495 1495 1495 1496 1496 1497 1497 1498 1499 1500 1500 1501 1501 1502 1503 1503 1504 1504 1505 1505 1506 1508 1509 1510 1511 1511 1511 1512 1513 1513 1514 1514 1515 1515 1515 1516 1517 1518 1519 1519 1520 1520 1522 1523 1524 1524 1524 1525 1525 1524 1524 1524 1525 1525 1526 1527 1527 1527 1527 1526 1526 1525
1489 1489 1490 1491 1491 1492 1492 1492 1493 1493 1494 1494 1495 1495 1496 1497 1498 1498 1499 1500 1500 1501 1501 1502 1502 1503 1504 1505 1506 1507 1508 1509 1510 1510 1510 1511 1511 1512 1513 1513 1513 1514 1515 1516 1517 1517 1518 1518 1519 1520 1521 1522 1523 1523 1523 1523 1523 1523 1523 1523 1524 1525 1525 1526 1525 1525 1525 1524 1524
1486 1487 1488 1489 1489 1490 1490 1490 1490 1491 1491 1491 1492 1493 1494 1495 1495 1496 1497 1498 1498 1499 1500 1500 1501 1501 1502 1504 1505 1505 1506 1507 1508 1508 1509 1509 1510 1511 1511 1511 1511 1512 1513 1514 1515 1516 1516 1517 1518 1519 1520 1521 1522 1522 1522 1522 1522 1521 1521 1521 1522 1523 1524 1524 1524 1523 1523 1523 1522
1484 1485 1486 1486 1487 1487 1487 1487 1488 1488 1489 1489 1490 1491 1492 1493 1493 1494 1495 1495 1496 1497 1498 1498 1499 1500 1501 1502 1503 1503 1504 1505 1505 1506 1507 1508 1509 1509 1510 1510 1510 1510 1511 1512 1513 1514 1515 1516 1517 1518 1519 1520 1520 1521 1521 1520 1520 1519 1519 1519 1520 1522 1523 1523 1522 1522 1521 1521 1521
1481 1482 1483 1484 1484 1484 1485 1485 1485 1486 1486 1487 1488 1489 1490 1490 1491 1492 1493 1494 1494 1495 1496 1497 1498 1498 1499 1500 1501 1502 1502 1503 1504 1505 1506 1507 1507 1508 1508 1508 1508 1509 1510 1510 1512 1513 1514 1515 1515 1516 1517 1518 1519 1519 1518 1517 1516 1516 1516 1518 1520 1521 1521 1521 1521 1520 1520 1520 1520
1479 1480 1481 1481 1481 1482 1482 1482 1483 1484 1485 1485 1486 1487 1488 1488 1489 1490 1491 1491 1492 1494 1495 1496 1497 1497 1498 1499 1500 1500 1501 1502 1503 1504 1505 1505 1505 1505 1506 1506 1506 1507 1508 1509 1510 1510 1511 1512 1513 1514 1515 1516 1516 1515 1515 1514 1514 1514 1515 1517 1519 1520 1520 1520 1520 1519 1518 1518 1518
1477 1477 1478 1478 1479 1479 1480 1480 1481 1482 1483 1484 1484 1485 1486 1487 1487 1488 1489 1490 1491 1492 1494 1495 1495 1496 1497 1497 1498 1499 1500 1501 1502 1502 1503 1503 1503 1503 1504 1504 1505 1505 1506 1506 1507 1508 1509 1510 1511 1512 1513 1513 1513 1512 1512 1512 1512 1513 1515 1516 1518 1518 1519 1518 1518 1517 1517 1516 1517
1474 1475 1475 1476 1476 1476 1477 1478 1479 1480 1481 1482 1483 1483 1484 1485 1485 1486 1487 1489 1490 1491 1492 1493 1494 1495 1495 1496 1497 1498 1499 1500 1500 1501 1501 1501 1501 1501 1502 1502 1503 1503 1504 1504 1505 1506 1507 1509 1510 1510 1510 1510 1510 1510 1510 1510 1511 1513 1514 1516 1516 1517 1517 1517 1516 1515 1515 1515 1516
1471 1471 1472 1473 1474 1474 1475 1476 1477 1479 1480 1481 1481 1482 1483 1483 1484 1485 1486 1488 1489 1490 1491 1492 1493 1494 1495 1495 1496 1497 1498 1498 1498 1499 1499 1500 1500 1500 1501 1501 1501 1502 1502 1502 1503 1505 1506 1507 1508 1508 1508 1508 1507 1507 1508 1510 1511 1512 1514 1515 1515 1515 1515 1515 1515 1514 1513 1514 1514
1468 1469 1470 1471 1472 1473 1474 1475 1477 1479 1480 1481 1481 1481 1482 1483 1484 1485 1486 1487 1488 1489 1490 1491 1492 1493 1494 1494 1495 1496 1496 1496 1497 1497 1497 1498 1498 1499 1500 1500 1500 1500 1501 1501 1502 1503 1504 1505 1505 1505 1505 1505 1505 1506 1507 1509 1510 1511 1512 1513 1513 1514 1514 1513 1513 1512 1512 1512 1513
1466 1467 1468 1469 1470 1471 1473 1474 1476 1478 1480 1481 1481 1481 1481 1482 1483 1484 1485 1485 1486 1487 1488 1489 1490 1492 1493 1493 1494 1494 1495 1495 1495 1495 1495 1496 1496 1497 1498 1498 1499 1499 1500 1500 1501 1502 1502 1503 1503 1502 1502 1503 1504 1505 1507 1508 1510 1510 1511 1511 1512 1512 1512 1511 1511 1510 1510 1511 1512
1465 1466 1467 1467 1468 1469 1470 1471 1473 1475 1478 1480 1480 1480 1481 1482 1482 1483 1483 1484 1485 1485 1486 1487 1489 1490 1490 1491 1492 1492 1493 1493 1494 1494 1495 1495 1495 1496 1496 1497 1498 1498 1499 1499 1500 1500 1500 1500 1500 1500 1501 1502 1503 1505 1506 1508 1508 1509 1510 1510 1510 1510 1510 1509 1509 1509 1509 1510 1510
1462 1463 1464 1465 1466 1467 1468 1469 1470 1472 1476 1478 1479 1479 1480 1480 1480 1481 1481 1482 1483 1484 1485 1485 1487 1487 1488 1489 1490 1490 1491 1492 1493 1493 1494 1495 1495 1495 1496 1496 1497 1497 1497 1497 1498 1498 1498 1498 1498 1499 1500 1501 1503 1505 1506 1506 1507 1508 1508 1508 1508 1508 1508 1507 1507 1507 1508 1508 1509
1460 1461 1462 1463 1464 1465 1466 1467 1468 1470 1473 1475 1477 1477 1478 1478 1479 1479 1480 1480 1481 1482 1483 1484 1485 1485 1486 1487 1488 1489 1489 1490 1491 1492 1493 1495 1495 1496 1496 1496 1496 1496 1495 1495 1495 1496 1496 1496 1497 1498 1499 1501 1503 1504 1505 1505 1506 1506 1507 1507 1506 1506 1505 1505 1505 1506 1507 1507 1507
1458 1459 1460 1461 1462 1463 1464 1465 1466 1468 1470 1473 1474 1475 1476 1476 1477 1477 1478 1479 1480 1481 1482 1483 1484 1484 1485 1486 1486 1487 1488 1489 1490 1491 1492 1493 1494 1494 1494 1494 1494 1493 1493 1493 1493 1494 1494 1495 1496 1497 1499 1501 1503 1503 1504 1504 1504 1505 1505 1505 1504 1504 1504 1504 1505 1505 1505 1505 1505
1457 1457 1458 1460 1461 1462 1462 1463 1465 1466 1467 1469 1471 1472 1473 1474 1475 1476 1476 1477 1478 1479 1480 1481 1482 1483 1484 1485 1485 1486 1487 1488 1489 1490 1490 1491 1492 1492 1492 1492 1491 1491 1491 1491 1492 1492 1493 1494 1495 1497 1499 1501 1502 1502 1502 1502 1503 1503 1503 1502 1502 1502 1503 1503 1504 1504 1504 1503 1503
1454 1455 1456 1458 1459 1460 1461 1461 1462 1463 1465 1466 1468 1469 1471 1472 1473 1474 1475 1476 1477 1477 1478 1479 1481 1482 1483 1484 1485 1485 1486 1487 1488 1489 1489 1490 1490 1491 1491 1490 1490 1490 1490 1490 1491 1491 1492 1493 1495 1497 1499 1500 1500 1500 1500 1501 1501 1501 1500 1500 1501 1501 1502 1502 1502 1502 1501 1501 1500
1451 1452 1454 1455 1457 1458 1459 1459 1460 1461 1462 1464 1465 1467 1469 1470 1471 1472 1473 1474 1475 1476 1477 1478 1479 1481 1482 1483 1484 1485 1485 1486 1487 1487 1488 1489 1489 1489 1490 1489 1489 1489 1489 1489 1490 1491 1492 1494 1495 1497 1498 1498 1499 1499 1499 1499 1499 1499 1499 1500 1500 1501 1501 1501 1500 1500 1499 1499 1498
1449 1449 1451 1453 1455 1456 1457 1457 1457 1458 1460 1462 1464 1465 1467 1468 1469 1470 1471 1472 1473 1474 1475 1476 1478 1480 1481 1481 1482 1483 1484 1485 1485 1486 1486 1487 1487 1487 1487 1487 1487 1487 1488 1488 1490 1491 1492 1494 1495 1496 1496 1497 1497 1497 1497 1497 1498 1498 1499 1499 1500 1499 1499 1499 1498 1497 1497 1496 1496
1446 1446 1448 1450 1452 1453 1454 1454 1455 1456 1458 1460 1462 1463 1465 1466 1467 1468 1469 1470 1471 1472 1474 1475 1477 1478 1479 1480 1480 1481 1482 1483 1484 1484 1485 1485 1485 1485 1485 1485 1486 1486 1487 1488 1490 1491 1493 1494 1494 1495 1495 1495 1495 1495 1496 1496 1497 1497 1498 1498 1497 1497 1496 1496 1495 1495 1495 1494 1494
1445 1445 1446 1448 1449 1450 1451 1452 1453 1454 1456 1458 1460 1461 1463 1464 1465 1466 1467 1468 1469 1471 1472 1474 1475 1476 1477 1478 1479 1480 1481 1481 1482 1483 1483 1483 1484 1484 1484 1485 1485 1486 1487 1488 1490 1491 1492 1492 1493 1493 1493 1494 1494 1494 1495 1495 1496 1496 1495 1495 1495 1494 1494 1494 1493 1493 1492 1492 1491
1445 1445 1446 1447 1447 1448 1449 1450 1452 1453 1455 1456 1459 1460 1462 1463 1464 1464 1465 1466 1468 1469 1470 1472 1473 1475 1476 1477 1478 1479 1480 1480 1481 1481 1481 1481 1482 1482 1483 1484 1485 1486 1487 1489 1490 1490 1490 1491 1491 1491 1492 1492 1492 1493 1493 1494 1494 1493 1493 1492 1492 1492 1491 1491 1491 1490 1490 1490 1489
1445 1445 1446 1446 1446 1446 1448 1449 1451 1453 1455 1456 1457 1458 1459 1460 1461 1462 1463 1465 1466 1468 1469 1470 1472 1473 1475 1476 1477 1478 1478 1479 1480 1480 1480 1480 1481 1482 1483 1484 1485 1486 1487 1488 1489 1489 1489 1489 1490 1490 1490 1491 1491 1491 1492 1492 1491 1491 1490 1490 1490 1490 1489 1489 1489 1488 1488 1487 1487
1445 1446 1446 1447 1446 1446 1447 1449 1451 1453 1454 1455 1456 1457 1458 1459 1460 1461 1462 1464 1465 1467 1469 1470 1471 1472 1474 1475 1476 1477 1477 1478 1478 1478 1479 1480 1480 1481 1482 1484 1485 1486 1486 1487 1487 1487 1487 1488 1488 1489 1489 1490 1490 1490 1490 1489 1489 1488 1488 1488 1487 1487 1487 1487 1486 1485 1485 1485 1484
1446 1446 1447 1448 1447 1448 1448 1450 1451 1452 1453 1455 1456 1458 1459 1460 1460 1461 1462 1463 1465 1467 1468 1470 1471 1472 1473 1474 1475 1475 1476 1476 1477 1477 1478 1479 1480 1481 1482 1483 1484 1485 1485 1485 1485 1486 1486 1487 1487 1488 1488 1488 1488 1487 1487 1487 1486 1486 1485 1485 1485 1485 1484 1484 1483 1482 1482 1481 1481
1446 1446 1447 1447 1448 1448 1449 1449 1450 1452 1455 1456 1458 1459 1460 1460 1461 1461 1462 1464 1465 1467 1468 1469 1470 1471 1472 1473 1473 1474 1474 1475 1475 1476 1478 1479 1480 1481 1482 1483 1483 1484 1484 1484 1484 1485 1485 1485 1486 1486 1486 1485 1485 1485 1484 1484 1483 1483 1483 1482 1482 1481 1481 1480 1480 1480 1479 1479 1478
1445 1446 1446 1446 1446 1447 1448 1449 1451 1453 1455 1457 1459 1460 1460 1461 1462 1462 1463 1464 1465 1466 1467 1468 1469 1470 1470 1471 1472 1472 1473 1474 1475 1476 1477 1478 1479 1480 1481 1481 1482 1482 1482 1481 1482 1482 1483 1483 1483 1483 1483 1482 1482 1482 1481 1481 1481 1480 1480 1480 1479 1479 1479 1478 1478 1478 1477 1477 1476